Weather History for Cherry Point, NC

Change the Weather History Date:

Monday, October 8, 2012

  Actual Average Record
Temperature  
Mean Temperature 62 °F -  
Max Temperature 69 °F 74 °F 89 °F (2007)
Min Temperature 55 °F 55 °F 42 °F (2001)
Degree Days  
Heating Degree Days 4    
Growing Degree Days 12 (Base 50)    
Moisture  
Dew Point 57 °F    
Average Humidity 86    
Maximum Humidity 94    
Minimum Humidity 76    
Precipitation  
Precipitation 0.26 in - - ()
Sea Level Pressure  
Sea Level Pressure 30.09 in    
Wind  
Wind Speed 10 mph ()    
Max Wind Speed 14 mph    
Max Gust Speed -    
Visibility 9.0 miles    
Events Rain    
Averages and records for this station are not official NWS values.
T = Trace of Precipitation, MM = Missing Value Source: Averaged Metar Reports

Daily Weather History Graph

Daily Weather History Graph

Search for Another Location

Airport:

Trip Planner

Search our weather history database for the weather conditions in past years. The results will help you decide how hot, cold, wet, or windy it might be!

Date:

Astronomy

Oct. 08, 2012 Rise Set
Actual Time 7:08 AM EDT 6:41 PM EDT
Civil Twilight 6:42 AM EDT 7:06 PM EDT
Nautical Twilight 6:13 AM EDT 7:35 PM EDT
Astronomical Twilight 5:44 AM EDT 8:05 PM EDT
Moon 12:01 AM EDT (10/8) 2:14 PM EDT (10/8)
Length of Visible Light 12h 23m
Length of Day
11h 33m
Waning Gibbous, 46% of the Moon is Illuminated
Oct 8
Waning Gibbous
Oct 15
New
Oct 21
First Quarter
Oct 29
Full
Nov 6
Last Quarter

Hourly Weather History & Observations

Time (EDT) Temp. Dew Point Humidity Pressure Visibility Wind Dir Wind Speed Gust Speed Precip Events Conditions
12:10 AM 59.0 °F 55.4 °F 88% 30.09 in 10.0 mi North 13.8 mph - N/A   Overcast
12:28 AM 59.0 °F 55.4 °F 88% 30.11 in 10.0 mi NNE 9.2 mph - N/A   Overcast
12:54 AM 57.9 °F 54.0 °F 87% 30.10 in 10.0 mi NNE 12.7 mph - N/A   Overcast
1:54 AM 57.9 °F 53.1 °F 84% 30.10 in 10.0 mi North 13.8 mph - N/A   Overcast
2:54 AM 57.0 °F 52.0 °F 83% 30.10 in 10.0 mi North 11.5 mph - N/A   Overcast
3:46 AM 57.2 °F 51.8 °F 82% 30.13 in 10.0 mi NNE 12.7 mph - N/A   Overcast
3:54 AM 57.0 °F 52.0 °F 83% 30.12 in 10.0 mi NNE 12.7 mph - N/A   Overcast
4:51 AM 55.4 °F 51.8 °F 88% 30.12 in 10.0 mi NNE 11.5 mph - N/A   Overcast
4:54 AM 57.0 °F 53.1 °F 87% 30.11 in 10.0 mi NNE 13.8 mph - N/A   Overcast
5:45 AM 57.2 °F 53.6 °F 88% 30.12 in 10.0 mi NNE 9.2 mph - N/A   Overcast
5:54 AM 57.9 °F 54.0 °F 87% 30.12 in 10.0 mi NNE 10.4 mph - N/A   Overcast
6:54 AM 57.9 °F 54.0 °F 87% 30.14 in 10.0 mi NNE 9.2 mph - N/A   Overcast
7:54 AM 59.0 °F 55.0 °F 87% 30.14 in 10.0 mi NNE 12.7 mph - N/A   Overcast
8:54 AM 60.1 °F 55.9 °F 86% 30.17 in 9.0 mi NNE 10.4 mph - N/A   Overcast
9:54 AM 62.1 °F 57.0 °F 84% 30.17 in 10.0 mi NNE 12.7 mph - N/A   Overcast
10:54 AM 63.0 °F 57.0 °F 81% 30.15 in 10.0 mi NNE 13.8 mph - N/A   Overcast
11:54 AM 66.0 °F 59.0 °F 78% 30.14 in 10.0 mi NE 11.5 mph - N/A   Overcast
12:46 PM 66.2 °F 59.0 °F 78% 30.12 in 10.0 mi NE 13.8 mph - N/A   Overcast
12:54 PM 66.9 °F 59.0 °F 76% 30.11 in 10.0 mi NE 12.7 mph - N/A   Overcast
1:54 PM 66.9 °F 60.1 °F 79% 30.08 in 10.0 mi NE 10.4 mph - N/A   Overcast
2:54 PM 68.0 °F 60.1 °F 76% 30.06 in 10.0 mi NE 10.4 mph - N/A   Overcast
3:37 PM 68.0 °F 60.8 °F 78% 30.06 in 10.0 mi ENE 9.2 mph - N/A   Overcast
3:54 PM 68.0 °F 61.0 °F 78% 30.05 in 10.0 mi NE 8.1 mph - N/A   Overcast
4:54 PM 68.0 °F 62.1 °F 81% 30.04 in 10.0 mi NNE 10.4 mph - N/A   Overcast
5:45 PM 66.2 °F 62.6 °F 88% 30.06 in 10.0 mi North 6.9 mph - 0.00 in   Overcast
5:54 PM 66.0 °F 62.1 °F 87% 30.06 in 10.0 mi North 11.5 mph - 0.00 in Rain Light Rain
6:26 PM 64.4 °F 60.8 °F 88% 30.06 in 10.0 mi NNE 11.5 mph - 0.00 in   Overcast
6:46 PM 64.4 °F 60.8 °F 88% 30.05 in 8.0 mi NNE 11.5 mph - 0.00 in   Overcast
6:54 PM 64.0 °F 61.0 °F 90% 30.03 in 10.0 mi NNE 9.2 mph - 0.00 in   Overcast
7:54 PM 61.0 °F 57.9 °F 90% 30.06 in 7.0 mi North 13.8 mph - N/A   Overcast
8:54 PM 60.1 °F 57.0 °F 90% 30.08 in 9.0 mi North 12.7 mph - N/A   Overcast
9:32 PM 60.8 °F 57.2 °F 88% 30.11 in 1.8 mi North 8.1 mph - 0.12 in Rain Heavy Rain
9:43 PM 60.8 °F 57.2 °F 88% 30.09 in 2.5 mi ENE 8.1 mph - 0.19 in Rain Rain
9:47 PM 60.8 °F 57.2 °F 88% 30.08 in 4.0 mi East 13.8 mph - 0.20 in Rain Rain
9:54 PM 60.1 °F 57.9 °F 93% 30.07 in 3.0 mi ESE 13.8 mph - 0.23 in Rain Heavy Rain
10:05 PM 60.8 °F 57.2 °F 88% 30.06 in 4.0 mi East 13.8 mph - 0.02 in Rain Rain
10:26 PM 60.8 °F 59.0 °F 94% 30.06 in 10.0 mi East 5.8 mph - 0.03 in   Mostly Cloudy
10:38 PM 62.6 °F 60.8 °F 94% 30.06 in 10.0 mi NE 4.6 mph - 0.03 in   Mostly Cloudy
10:54 PM 63.0 °F 61.0 °F 93% 30.06 in 10.0 mi NNW 6.9 mph - 0.03 in   Overcast
11:54 PM 62.1 °F 60.1 °F 93% 30.05 in 10.0 mi North 9.2 mph - N/A   Overcast